sat.trackr.live / text

‹ back to catalog

ONEWEB-0591

NORAD 54657 · 2022-166R

PAYLOAD ACTIVE UNKNOWN

§ Identity

Operator
Country
UK
Launch date
2022-12-08
Launch site
AFETR
Launch vehicle
Mass (kg)
RCS (m²)

Purposes: comms

External: N2YO · Heavens-Above · Gunter

§ Orbital elements

Epoch: 2026-09-20T03:46:15.916224Z

Period
108.94 min
Inclination
87.9277°
Eccentricity
0.0002057
Mean motion
13.21827181 rev/d
Perigee alt
1,176.2 km
Apogee alt
1,179.3 km
Semi-major
7,555.9 km
B*
1.7484e-4
RAAN
225.0798°
Arg perigee
82.4220°
Mean anomaly
277.7148°
Rev number
18,410

§ Raw data

ONEWEB-05911 54657U 22166R   26263.15712866  .00000085  00000+0  17484-3 0  99982 54657  87.9277 225.0798 0002057  82.4220 277.7148 13.21827181184108

JSON: /api/v1/satellites/54657 · /tle

For live sub-satellite position, see the globe view (requires WebGL).

§ Visibility from observer

Set your observer location to see the next 7 days of passes ≥ 10°. The values pass through the URL so the page stays shareable.

No JS? Fill the form by hand. The geolocation button needs JavaScript.